TimeEET,TemperatureF,Dew PointF,Humidity,Sea Level PressureIn,VisibilityMPH,Wind Direction,Wind SpeedMPH,Gust SpeedMPH,PrecipitationIn,Events,Conditions,WindDirDegrees,DateUTC
1:00 AM,75.2,44.6,34,29.83,-9999.0,Calm,Calm,-,N/A,,Clear,0,2014-04-17 23:00:00
2:00 AM,74,44,24,29.82,6,East,1.2,,,,,90,2014-04-18 00:00:00
2:00 AM,73.4,44.6,36,29.83,-9999.0,East,1.2,-,N/A,,Clear,90,2014-04-18 00:00:00
3:00 AM,71.6,42.8,35,29.83,-9999.0,Calm,Calm,-,N/A,,Clear,0,2014-04-18 01:00:00
4:00 AM,69.8,42.8,38,29.80,-9999.0,Calm,Calm,-,N/A,,Clear,0,2014-04-18 02:00:00
5:00 AM,70,48,35,29.83,6,North,3.5,,,,,10,2014-04-18 03:00:00
5:00 AM,69.8,48.2,46,29.83,-9999.0,North,3.5,-,N/A,,Clear,10,2014-04-18 03:00:00
7:00 AM,75.2,50.0,41,29.89,-9999.0,Calm,Calm,-,N/A,,Clear,0,2014-04-18 05:00:00
8:00 AM,80,50,25,29.91,6,NE,9.2,,,,,40,2014-04-18 06:00:00
8:00 AM,80.6,50.0,34,29.92,-9999.0,NE,9.2,-,N/A,,Clear,40,2014-04-18 06:00:00
9:00 AM,82.4,51.8,35,29.92,-9999.0,NE,4.6,-,N/A,,Clear,40,2014-04-18 07:00:00
10:00 AM,87.8,51.8,29,29.92,-9999.0,NE,4.6,-,N/A,,Clear,40,2014-04-18 08:00:00
11:00 AM,92,54,18,29.90,6,North,4.6,,,,,350,2014-04-18 09:00:00
11:00 AM,91.4,53.6,28,29.92,-9999.0,North,4.6,-,N/A,,Clear,350,2014-04-18 09:00:00
12:00 PM,95.0,53.6,25,29.89,-9999.0,NNE,5.8,-,N/A,,Clear,20,2014-04-18 10:00:00
1:00 PM,96.8,51.8,22,29.86,-9999.0,North,5.8,-,N/A,,Clear,350,2014-04-18 11:00:00
2:00 PM,100,52,12,29.82,6,NNW,5.8,,,,,330,2014-04-18 12:00:00
2:00 PM,100.4,51.8,20,29.83,-9999.0,NNW,5.8,-,N/A,,Clear,330,2014-04-18 12:00:00
3:00 PM,102.2,48.2,16,29.80,-9999.0,East,6.9,-,N/A,,Clear,80,2014-04-18 13:00:00
4:00 PM,102.2,48.2,16,29.77,-9999.0,NNE,2.3,-,N/A,,Clear,30,2014-04-18 14:00:00
5:00 PM,99,55,14,29.77,6,North,3.5,,,,,350,2014-04-18 15:00:00
5:00 PM,98.6,55.4,24,29.77,-9999.0,North,3.5,-,N/A,,Clear,350,2014-04-18 15:00:00
6:00 PM,95.0,53.6,25,29.80,-9999.0,North,3.5,-,N/A,,Clear,350,2014-04-18 16:00:00
7:00 PM,95.0,51.8,23,29.80,-9999.0,NE,5.8,-,N/A,,Clear,40,2014-04-18 17:00:00
8:00 PM,94,50,14,29.80,6,East,11.5,,,,,80,2014-04-18 18:00:00
8:00 PM,95.0,50.0,22,29.80,-9999.0,East,11.5,-,N/A,,Clear,80,2014-04-18 18:00:00
9:00 PM,91.4,48.2,23,29.83,-9999.0,Calm,Calm,-,N/A,,Clear,0,2014-04-18 19:00:00
10:00 PM,86.0,50.0,29,29.86,-9999.0,NNW,2.3,-,N/A,,Clear,330,2014-04-18 20:00:00
11:00 PM,83,48,20,29.85,6,NW,2.3,,,,,320,2014-04-18 21:00:00
11:00 PM,82.4,48.2,30,29.86,-9999.0,NW,2.3,-,N/A,,Clear,320,2014-04-18 21:00:00